FW9676 Weather Reports


Display with metric or nautical units.
time (UTC)temp
F
wind
direction
speed
MPH
gust
MPH
rain 1hr
in
rain 24hr
in
rain mn
in
humidity
%
barometer
mb
20260831001019 78 269 4.0 15.0 0.00 0.00 0.00 80 1010.4
20260831000520 78 257 7.0 15.0 0.00 0.00 0.00 80 1010.3
20260831000036 78 263 7.0 15.0 0.00 0.00 0.00 80 1010.2
20260830235522 78 213 7.0 17.0 0.00 0.00 0.00 81 1010.2
20260830235018 78 270 7.0 17.0 0.00 0.00 0.00 81 1010.3
20260830234553 79 219 7.0 17.0 0.00 0.00 0.00 80 1010.3
20260830234015 79 298 6.0 15.0 0.00 0.00 0.00 80 1010.4
20260830233516 79 229 7.0 17.0 0.00 0.00 0.00 80 1010.4
20260830233036 79 242 8.0 17.0 0.00 0.00 0.00 78 1010.3
20260830232520 79 227 5.0 14.0 0.00 0.00 0.00 79 1010.4
20260830232020 79 223 6.0 14.0 0.00 0.00 0.00 80 1010.4
20260830231537 79 267 7.0 13.0 0.00 0.00 0.00 79 1010.5
20260830231019 79 234 6.0 14.0 0.00 0.00 0.00 79 1010.6
20260830230519 79 244 7.0 14.0 0.00 0.00 0.00 79 1010.6
20260830230039 80 227 6.0 12.0 0.00 0.00 0.00 78 1010.6
20260830225518 80 261 4.0 12.0 0.00 0.00 0.00 79 1010.6
20260830225019 80 248 6.0 12.0 0.00 0.00 0.00 79 1010.7
20260830224541 80 196 6.0 12.0 0.00 0.00 0.00 78 1010.7
20260830224019 80 232 5.0 12.0 0.00 0.00 0.00 78 1010.8
20260830223520 80 248 6.0 12.0 0.00 0.00 0.00 78 1010.9
20260830223040 80 240 5.0 12.0 0.00 0.00 0.00 78 1011.0
20260830222519 80 288 4.0 13.0 0.00 0.00 0.00 78 1011.0
20260830222022 79 252 6.0 13.0 0.00 0.00 0.00 78 1011.0
20260830221536 80 267 6.0 13.0 0.00 0.00 0.00 77 1011.1
20260830221018 80 256 4.0 10.0 0.00 0.00 0.00 78 1011.1
20260830220516 80 264 4.0 12.0 0.00 0.00 0.00 78 1011.2
20260830220039 80 239 6.0 12.0 0.00 0.00 0.00 78 1011.2
20260830215518 80 200 6.0 14.0 0.00 0.00 0.00 78 1011.2
20260830215020 80 227 4.0 14.0 0.00 0.00 0.00 78 1011.3
20260830214539 80 269 6.0 14.0 0.00 0.00 0.00 78 1011.4
20260830214019 80 273 7.0 13.0 0.00 0.00 0.00 77 1011.6
20260830213516 80 235 5.0 13.0 0.00 0.00 0.00 77 1011.6
20260830213035 80 267 5.0 13.0 0.00 0.00 0.00 78 1011.6
20260830212518 80 215 6.0 15.0 0.00 0.00 0.00 77 1011.7
20260830212020 80 265 6.0 15.0 0.00 0.00 0.00 78 1011.6
20260830211537 80 235 7.0 15.0 0.00 0.00 0.00 78 1011.8
20260830211019 80 249 7.0 14.0 0.00 0.00 0.00 79 1011.9
20260830210519 80 253 7.0 15.0 0.00 0.00 0.00 78 1011.9
20260830210036 80 238 6.0 15.0 0.00 0.00 0.00 78 1012.0
20260830205523 80 211 7.0 14.0 0.00 0.00 0.00 78 1012.1
20260830205022 81 277 9.0 14.0 0.00 0.00 0.00 77 1012.1
20260830204536 81 207 7.0 14.0 0.00 0.00 0.00 78 1012.0
20260830204021 81 230 7.0 14.0 0.00 0.00 0.00 77 1012.1
20260830203518 81 200 5.0 12.0 0.00 0.00 0.00 78 1012.1
20260830203035 81 273 6.0 12.0 0.00 0.00 0.00 77 1012.1
20260830202516 81 273 6.0 12.0 0.00 0.00 0.00 78 1012.2
20260830202016 81 238 6.0 14.0 0.00 0.00 0.00 77 1012.1
20260830201603 81 258 6.0 14.0 0.00 0.00 0.00 77 1012.1
20260830201021 81 242 7.0 12.0 0.00 0.00 0.00 77 1012.1
20260830200521 81 204 6.0 13.0 0.00 0.00 0.00 77 1012.0
20260830200037 81 262 7.0 14.0 0.00 0.00 0.00 77 1012.1
20260830195519 82 287 6.0 14.0 0.00 0.00 0.00 76 1012.1
20260830195021 81 229 5.0 14.0 0.00 0.00 0.00 77 1012.0
20260830194536 82 250 6.0 14.0 0.00 0.00 0.00 76 1012.0
20260830194019 82 254 6.0 14.0 0.00 0.00 0.00 76 1012.0
20260830193519 82 254 6.0 14.0 0.00 0.00 0.00 76 1012.0
20260830193040 82 277 6.0 14.0 0.00 0.00 0.00 75 1012.1
20260830192515 82 239 5.0 12.0 0.00 0.00 0.00 76 1012.0
20260830192015 82 207 4.0 13.0 0.00 0.00 0.00 76 1012.1
20260830191544 81 257 6.0 13.0 0.00 0.00 0.00 76 1012.1
20260830191024 81 228 5.0 13.0 0.00 0.00 0.00 77 1012.2
20260830190520 81 273 5.0 12.0 0.00 0.00 0.00 77 1012.3
20260830190039 81 223 5.0 12.0 0.00 0.00 0.00 76 1012.3
20260830185520 81 269 6.0 13.0 0.00 0.00 0.00 76 1012.4
20260830185019 81 273 6.0 13.0 0.00 0.00 0.00 77 1012.4
20260830184541 81 228 6.0 12.0 0.00 0.00 0.00 76 1012.4
20260830184019 81 277 5.0 11.0 0.00 0.00 0.00 76 1012.4
20260830183520 81 253 4.0 11.0 0.00 0.00 0.00 76 1012.3
20260830183034 81 223 4.0 11.0 0.00 0.00 0.00 75 1012.3
20260830182516 81 248 4.0 10.0 0.00 0.00 0.00 75 1012.2
20260830182016 81 234 4.0 10.0 0.00 0.00 0.00 75 1012.3
20260830181553 81 263 4.0 11.0 0.00 0.00 0.00 75 1012.3
20260830181020 81 271 4.0 11.0 0.00 0.00 0.00 74 1012.3
20260830180519 81 240 4.0 10.0 0.00 0.00 0.00 74 1012.3
20260830180035 81 257 5.0 10.0 0.00 0.00 0.00 73 1012.3
20260830175517 81 246 5.0 10.0 0.00 0.00 0.00 72 1012.3
20260830175020 81 276 3.0 9.0 0.00 0.00 0.00 72 1012.3
20260830174534 81 249 4.0 10.0 0.00 0.00 0.00 71 1012.2
20260830174018 81 263 5.0 10.0 0.00 0.00 0.00 71 1012.3
20260830173520 82 263 3.0 8.0 0.00 0.00 0.00 70 1012.3
20260830173037 82 252 3.0 8.0 0.00 0.00 0.00 71 1012.3
20260830172518 81 219 2.0 8.0 0.00 0.00 0.00 71 1012.3
20260830172020 81 217 2.0 8.0 0.00 0.00 0.00 71 1012.2
20260830171538 81 283 2.0 8.0 0.00 0.00 0.00 72 1012.2
20260830171019 81 261 2.0 6.0 0.00 0.00 0.00 72 1012.2
20260830170520 80 260 1.0 5.0 0.00 0.00 0.00 72 1012.2
20260830170036 80 248 2.0 5.0 0.00 0.00 0.00 72 1012.2
20260830165516 80 265 1.0 4.0 0.00 0.00 0.00 72 1012.1
20260830165018 80 236 2.0 4.0 0.00 0.00 0.00 72 1012.1
20260830164538 80 261 1.0 5.0 0.00 0.00 0.00 73 1012.2
20260830164020 80 217 2.0 5.0 0.00 0.00 0.00 72 1012.2
20260830163520 81 242 1.0 4.0 0.00 0.00 0.00 71 1012.2
20260830163036 81 167 0.0 4.0 0.00 0.00 0.00 71 1012.2
20260830162521 81 0 0.0 4.0 0.00 0.00 0.00 71 1012.2
20260830162017 80 137 0.0 4.0 0.00 0.00 0.00 72 1012.2
20260830161535 80 172 0.0 5.0 0.00 0.00 0.00 72 1012.2
20260830161016 79 120 1.0 6.0 0.00 0.00 0.00 73 1012.1
20260830160516 79 71 2.0 6.0 0.00 0.00 0.00 73 1012.2
20260830160037 78 0 0.0 2.0 0.00 0.00 0.00 75 1012.1
20260830155520 78 0 1.0 3.0 0.00 0.00 0.00 75 1012.2
20260830155019 78 0 0.0 3.0 0.00 0.00 0.00 76 1012.1
20260830154535 77 0 0.0 2.0 0.00 0.00 0.00 77 1012.2
20260830154018 77 269 0.0 3.0 0.00 0.00 0.00 77 1012.2
20260830153519 77 269 0.0 3.0 0.00 0.00 0.00 77 1012.2
20260830153040 77 238 0.0 2.0 0.00 0.00 0.00 78 1012.2
20260830152519 76 238 0.0 2.0 0.00 0.00 0.00 78 1012.2
20260830152019 76 238 0.0 2.0 0.00 0.00 0.00 80 1012.2
20260830151536 76 238 0.0 2.0 0.00 0.00 0.00 80 1012.2
20260830151019 76 0 0.0 1.0 0.00 0.00 0.00 81 1012.2
20260830150518 75 238 0.0 1.0 0.00 0.00 0.00 82 1012.2
20260830150038 75 0 0.0 0.0 0.00 0.00 0.00 82 1012.1
20260830145517 74 0 0.0 0.0 0.00 0.00 0.00 83 1012.1
20260830145020 73 0 0.0 0.0 0.00 0.00 0.00 85 1012.2
20260830144542 72 0 0.0 0.0 0.00 0.00 0.00 86 1012.1
20260830144017 72 0 0.0 0.0 0.00 0.00 0.00 87 1012.1
20260830143518 71 0 0.0 0.0 0.00 0.00 0.00 88 1012.0
20260830143035 70 0 0.0 0.0 0.00 0.00 0.00 89 1012.0
20260830142518 69 0 0.0 0.0 0.00 0.00 0.00 90 1012.0
20260830142017 69 0 0.0 0.0 0.00 0.00 0.00 90 1011.9
20260830141534 68 0 0.0 0.0 0.00 0.00 0.00 90 1011.9
20260830141018 68 0 0.0 0.0 0.00 0.00 0.00 91 1011.8
20260830140515 68 0 0.0 0.0 0.00 0.00 0.00 90 1011.8
20260830140040 67 0 0.0 0.0 0.00 0.00 0.00 90 1011.8
20260830135521 67 0 0.0 0.0 0.00 0.00 0.00 90 1011.7
20260830135020 67 0 0.0 0.0 0.00 0.00 0.00 90 1011.8
20260830134536 67 0 0.0 0.0 0.00 0.00 0.00 90 1011.7
20260830134020 67 0 0.0 0.0 0.00 0.00 0.00 89 1011.7
20260830133522 67 0 0.0 0.0 0.00 0.00 0.00 89 1011.7
20260830133042 67 0 0.0 0.0 0.00 0.00 0.00 89 1011.5
20260830132518 67 0 0.0 0.0 0.00 0.00 0.00 89 1011.5
20260830132018 68 0 0.0 0.0 0.00 0.00 0.00 89 1011.3
20260830131536 68 0 0.0 0.0 0.00 0.00 0.00 89 1011.3
20260830131016 68 0 0.0 0.0 0.00 0.00 0.00 89 1011.3
20260830130524 68 0 0.0 0.0 0.00 0.00 0.00 89 1011.2
20260830130044 68 0 0.0 0.0 0.00 0.00 0.00 89 1011.3
20260830125517 68 0 0.0 0.0 0.00 0.00 0.00 89 1011.3
20260830125019 68 0 0.0 0.0 0.00 0.00 0.00 88 1011.3
20260830124536 68 0 0.0 0.0 0.00 0.00 0.00 88 1011.2
20260830124024 68 0 0.0 0.0 0.00 0.00 0.00 88 1011.2
20260830123516 68 0 0.0 0.0 0.00 0.00 0.00 88 1011.2
20260830123038 68 0 0.0 0.0 0.00 0.00 0.00 88 1011.2
20260830122518 68 0 0.0 0.0 0.00 0.00 0.00 88 1011.2
20260830122020 68 0 0.0 0.0 0.00 0.00 0.00 88 1011.1
20260830121535 69 0 0.0 0.0 0.00 0.00 0.00 87 1011.1
20260830121019 69 0 0.0 0.0 0.00 0.00 0.00 87 1011.1
20260830120526 69 0 0.0 0.0 0.00 0.00 0.00 87 1011.1
20260830120047 69 0 0.0 0.0 0.00 0.00 0.00 87 1011.0
20260830115523 69 0 0.0 1.0 0.00 0.00 0.00 87 1011.0
20260830115020 69 0 0.0 1.0 0.00 0.00 0.00 88 1011.0
20260830114541 69 0 0.0 1.0 0.00 0.00 0.00 88 1011.0
20260830114018 70 0 0.0 0.0 0.00 0.00 0.00 87 1011.0
20260830113516 70 0 0.0 0.0 0.00 0.00 0.00 87 1010.9
20260830113037 70 0 0.0 0.0 0.00 0.00 0.00 87 1011.0
20260830112518 70 0 0.0 0.0 0.00 0.00 0.00 87 1011.0
20260830112018 70 0 0.0 0.0 0.00 0.00 0.00 87 1011.0
20260830111539 70 0 0.0 0.0 0.00 0.00 0.00 87 1010.9
20260830111020 70 0 0.0 0.0 0.00 0.00 0.00 87 1011.0
20260830110519 70 0 0.0 0.0 0.00 0.00 0.00 87 1010.9
20260830110038 71 0 0.0 0.0 0.00 0.00 0.00 87 1010.9
20260830105520 71 0 0.0 0.0 0.00 0.00 0.00 87 1010.8
20260830105018 71 0 0.0 0.0 0.00 0.00 0.00 87 1010.9
20260830104539 71 0 0.0 0.0 0.00 0.00 0.00 87 1010.9
20260830104018 71 0 0.0 0.0 0.00 0.00 0.00 87 1010.8
20260830103516 71 0 0.0 0.0 0.00 0.00 0.00 87 1010.8
20260830103039 70 0 0.0 0.0 0.00 0.00 0.00 86 1010.8
20260830102518 71 0 0.0 0.0 0.00 0.00 0.00 86 1010.9
20260830102018 71 0 0.0 2.0 0.00 0.00 0.00 86 1010.8
20260830101536 71 0 0.0 2.0 0.00 0.00 0.00 86 1010.9
20260830101019 71 0 0.0 3.0 0.00 0.00 0.00 86 1010.8
20260830100519 71 238 0.0 3.0 0.00 0.00 0.00 86 1010.9
20260830100036 71 0 0.0 3.0 0.00 0.00 0.00 87 1010.9
20260830095522 70 231 0.0 3.0 0.00 0.00 0.00 87 1011.0
20260830095016 70 228 0.0 3.0 0.00 0.00 0.00 87 1010.9
20260830094601 70 261 0.0 3.0 0.00 0.00 0.00 87 1010.9
20260830094018 70 261 1.0 3.0 0.00 0.00 0.00 88 1010.8
20260830093519 70 261 0.0 3.0 0.00 0.00 0.00 88 1010.8
20260830093039 70 0 0.0 2.0 0.00 0.00 0.00 88 1010.8
20260830092520 70 261 0.0 1.0 0.00 0.00 0.00 88 1010.7
20260830092023 70 0 0.0 0.0 0.00 0.00 0.00 88 1010.7
20260830091539 71 0 0.0 0.0 0.00 0.00 0.00 88 1010.8
20260830091024 71 0 0.0 0.0 0.00 0.00 0.00 88 1010.8
20260830090519 71 0 0.0 0.0 0.00 0.00 0.00 88 1010.8
20260830090046 71 0 0.0 1.0 0.00 0.00 0.00 88 1010.7
20260830085523 71 0 0.0 1.0 0.00 0.00 0.00 88 1010.8
20260830085018 71 0 0.0 3.0 0.00 0.00 0.00 88 1010.8
20260830084538 71 0 0.0 3.0 0.00 0.00 0.00 88 1010.8
20260830084020 71 261 1.0 3.0 0.00 0.00 0.00 88 1011.0
20260830083520 71 279 0.0 1.0 0.00 0.00 0.00 88 1010.8
20260830083038 71 0 0.0 0.0 0.00 0.00 0.00 88 1010.7
20260830082517 72 0 0.0 0.0 0.00 0.00 0.00 88 1010.8
20260830082017 72 0 0.0 2.0 0.00 0.00 0.00 87 1011.0
20260830081535 72 0 0.0 2.0 0.00 0.00 0.00 87 1011.0
20260830081018 72 0 0.0 2.0 0.00 0.00 0.00 87 1011.0
20260830080519 72 0 0.0 2.0 0.00 0.00 0.00 86 1011.0
20260830080046 72 0 0.0 2.0 0.00 0.00 0.00 86 1010.9
20260830075516 72 279 0.0 2.0 0.00 0.00 0.00 86 1010.9
20260830075021 72 279 0.0 2.0 0.00 0.00 0.00 86 1011.0
20260830074538 72 0 0.0 2.0 0.00 0.00 0.00 85 1011.0
20260830074020 72 279 0.0 2.0 0.00 0.00 0.00 85 1011.0
20260830073517 72 279 0.0 2.0 0.00 0.00 0.00 85 1010.9
20260830073036 72 279 0.0 2.0 0.00 0.00 0.00 84 1010.9
20260830072518 72 0 0.0 0.0 0.00 0.00 0.00 84 1010.9
20260830072016 72 0 0.0 1.0 0.00 0.00 0.00 84 1011.0
20260830071541 72 0 0.0 1.0 0.00 0.00 0.00 84 1010.9
20260830071018 72 0 0.0 1.0 0.00 0.00 0.00 83 1010.8
20260830070523 72 0 0.0 1.0 0.00 0.00 0.00 83 1010.8
20260830070041 72 0 0.0 2.0 0.00 0.00 0.00 83 1010.8
20260830065522 72 157 0.0 2.0 0.00 0.00 0.00 82 1010.8
20260830065020 72 0 0.0 2.0 0.00 0.00 0.00 83 1010.9
20260830064543 72 0 0.0 2.0 0.00 0.00 0.00 83 1010.9
20260830064018 72 157 0.0 2.0 0.00 0.00 0.00 83 1010.8
20260830063519 72 0 0.0 2.0 0.00 0.00 0.00 83 1010.8
20260830063038 72 157 0.0 3.0 0.00 0.00 0.00 84 1010.7
20260830062519 72 0 0.0 3.0 0.00 0.00 0.00 85 1010.8
20260830062018 72 157 0.0 3.0 0.00 0.00 0.00 85 1010.6
20260830061540 72 0 0.0 0.0 0.00 0.00 0.00 86 1010.5
20260830061019 72 0 0.0 0.0 0.00 0.00 0.00 86 1010.6
20260830060518 72 0 0.0 1.0 0.00 0.00 0.00 86 1010.5
20260830060037 72 0 0.0 1.0 0.00 0.00 0.00 86 1010.5
20260830055519 72 0 0.0 1.0 0.00 0.00 0.00 85 1010.4
20260830055019 73 0 0.0 1.0 0.00 0.00 0.00 85 1010.5
20260830054543 73 0 0.0 4.0 0.00 0.00 0.00 85 1010.4
20260830054018 73 0 0.0 5.0 0.00 0.00 0.00 86 1010.4
20260830053518 73 264 0.0 5.0 0.00 0.00 0.00 85 1010.4
20260830053037 73 0 1.0 5.0 0.00 0.00 0.00 85 1010.4
20260830052518 73 0 0.0 4.0 0.00 0.00 0.00 85 1010.5
20260830052020 73 0 1.0 4.0 0.00 0.00 0.00 85 1010.6
20260830051536 73 257 0.0 4.0 0.00 0.00 0.00 85 1010.4
20260830051017 73 217 0.0 8.0 0.00 0.00 0.00 85 1010.3
20260830050519 73 266 2.0 8.0 0.00 0.00 0.00 84 1010.3
20260830050038 73 277 3.0 7.0 0.00 0.00 0.00 84 1010.4
20260830045518 73 257 2.0 10.0 0.00 0.00 0.00 84 1010.3
20260830045016 73 285 3.0 10.0 0.00 0.00 0.00 84 1010.4
20260830044539 73 259 4.0 10.0 0.00 0.00 0.00 84 1010.6
20260830044018 73 0 1.0 8.0 0.00 0.00 0.00 84 1010.7
20260830043518 73 223 3.0 9.0 0.00 0.00 0.00 84 1010.7
20260830043038 74 213 3.0 9.0 0.00 0.00 0.00 83 1010.8
20260830042518 74 225 2.0 8.0 0.00 0.00 0.00 82 1010.7
20260830042021 74 259 3.0 11.0 0.00 0.00 0.00 82 1010.7
20260830041536 74 241 4.0 11.0 0.00 0.00 0.00 81 1010.7
20260830041018 74 242 4.0 11.0 0.00 0.00 0.00 80 1010.7
20260830040518 74 224 3.0 9.0 0.00 0.00 0.00 80 1010.6
20260830040041 74 264 3.0 8.0 0.00 0.00 0.00 80 1010.7
20260830035516 74 237 1.0 8.0 0.00 0.00 0.00 80 1010.6
20260830035019 74 0 2.0 7.0 0.00 0.00 0.00 80 1010.6
20260830034539 74 239 1.0 7.0 0.00 0.00 0.00 80 1010.4
20260830034019 74 256 2.0 7.0 0.00 0.00 0.00 80 1010.3
20260830033517 74 265 2.0 6.0 0.00 0.00 0.00 81 1010.4
20260830033039 74 228 1.0 6.0 0.00 0.00 0.00 83 1010.2
20260830032520 74 256 2.0 6.0 0.00 0.00 0.00 84 1010.1
20260830032025 74 256 2.0 6.0 0.00 0.00 0.00 86 1010.1
20260830031537 74 258 2.0 8.0 0.00 0.00 0.00 87 1009.9
20260830031019 74 288 2.0 8.0 0.00 0.00 0.00 87 1009.8
20260830030519 74 262 3.0 8.0 0.00 0.00 0.00 87 1009.8
20260830030037 74 256 1.0 9.0 0.00 0.00 0.00 87 1009.9
20260830025520 74 246 3.0 9.0 0.00 0.00 0.00 86 1010.0
20260830025016 74 222 2.0 9.0 0.00 0.00 0.00 86 1009.9
20260830024537 74 263 3.0 9.0 0.00 0.00 0.00 86 1009.8
20260830024019 74 257 2.0 7.0 0.00 0.00 0.00 86 1009.8
20260830023518 74 232 2.0 10.0 0.00 0.00 0.00 86 1009.8
20260830023040 74 223 4.0 10.0 0.00 0.00 0.00 85 1009.7
20260830022519 75 251 2.0 8.0 0.00 0.00 0.00 85 1009.8
20260830022021 75 229 3.0 9.0 0.00 0.00 0.00 84 1009.8
20260830021535 75 229 2.0 9.0 0.00 0.00 0.00 84 1009.9
20260830021019 75 237 2.0 9.0 0.00 0.00 0.00 84 1009.8
20260830020519 75 0 4.0 9.0 0.00 0.00 0.00 83 1009.8
20260830020043 75 221 4.0 9.0 0.00 0.00 0.00 83 1009.8
20260830015518 76 215 4.0 9.0 0.00 0.00 0.00 83 1009.7
20260830015016 76 252 3.0 12.0 0.00 0.00 0.00 83 1009.6
20260830014538 76 238 4.0 12.0 0.00 0.00 0.00 83 1009.7
20260830014018 76 242 5.0 12.0 0.00 0.00 0.00 82 1009.8
20260830013515 76 203 5.0 12.0 0.00 0.00 0.00 81 1009.8
20260830013044 76 251 2.0 13.0 0.00 0.00 0.00 82 1009.8
20260830012522 76 240 5.0 13.0 0.00 0.00 0.00 83 1009.8
20260830012026 76 229 5.0 11.0 0.00 0.00 0.00 85 1009.7
20260830011544 76 250 5.0 11.0 0.00 0.00 0.00 85 1009.7
20260830011022 76 225 5.0 13.0 0.00 0.00 0.00 85 1009.8
20260830010519 76 252 6.0 13.0 0.00 0.00 0.00 85 1009.9
20260830010036 77 229 6.0 12.0 0.00 0.00 0.00 84 1010.0
20260830005520 77 230 6.0 12.0 0.00 0.00 0.00 83 1010.0
20260830005019 77 255 4.0 13.0 0.00 0.00 0.00 82 1010.0
20260830004540 77 246 3.0 13.0 0.00 0.00 0.00 82 1010.0
20260830004018 77 264 5.0 13.0 0.00 0.00 0.00 82 1010.0
20260830003517 77 269 5.0 13.0 0.00 0.00 0.00 82 1010.0
20260830003040 77 206 6.0 13.0 0.00 0.00 0.00 82 1010.0
20260830002520 78 267 6.0 15.0 0.00 0.00 0.00 82 1010.0
20260830002021 78 271 6.0 15.0 0.00 0.00 0.00 82 1009.8
20260830001536 78 258 8.0 14.0 0.00 0.00 0.00 82 1009.9